Вернуться в каталог

USA 17

АктивенВоенныеLEO
NORAD 16625·PAYLOAD·🇺🇸 United States

Запущен Feb 9, 1986 с Vandenberg Space Force Base

Loading…

Ближайшие Пролёты (ближайшие 24 часа)

TLE

СвежийSource: Space-Track

Эпоха: Sep 14, 2026, 07:02 UTC

1 16625U 86014F   26257.29339848  .00002077  00000-0  21510-3 0  9995
2 16625  63.3014 216.2184 0778729 117.3273 250.9223 13.75152525355076

Отслеживайте USA 17 в реальном времени с AllMySat

Download on the App Store